Weather in Bilibino

Russia / Chukotka Autonomous Okrug     68°03′25″N   166°27′04″E
temp.,
°C
wind,
m/s
gust,
m/s
humid.,
%
clouds,
%
prec.,
mm/h
press.,
hPa
HPBL,
m
17 august, wed
wed1700:00+5e3283100 0.0 101224
03:00+5e2281100 0.0 101215
06:00+5e2280100 0.0 101255
09:00+7e2357100 0.0 1011637
12:00+10e344181 0.0 1010876
15:00+12ese4535100 0.0 10081025
18:00+12ese5634100 0.0 1008944
21:00+8ene2246100 0.0 100913
18 august, thu
thu1800:00+5e2154100 0.0 100910
03:00+3e216198 0.0 100910
06:00+4e216242 0.0 100911
09:00+8e12485 0.0 1009433
12:00+12e23350 0.0 1007903
15:00+15ese44280 0.0 10061177
18:00+15ese44280 0.0 10061176
21:00+9e22430 0.0 100810
19 august, fri
fri1900:00+6ene22500 0.0 100910
03:00+4e11590 0.0 101010
06:00+6e11570 0.0 101110
09:00+10ese11420 0.0 1011339
12:00+13se11360 0.0 1011915
15:00+15ese11320 0.0 10101316
18:00+15e22320 0.0 10101340
21:00+10ene22460 0.0 101110
20 august, sat
sat2000:00+7e21590 0.0 101210
03:00+6e11680 0.0 101210
06:00+7e11650 0.0 101310
09:00+11ese11500 0.0 1013351
12:00+14ese22390 0.0 10121020
15:00+16ese23330 0.0 10111451
18:00+17ese34354 0.0 10111697
21:00+11e22564 0.0 101211
21 august, sun
sun2100:00+8e11702 0.0 101310
03:00+7ene11724 0.0 101410
06:00+7e11700 0.0 101510
09:00+11ese11540 0.0 1015379
12:00+14ese22420 0.0 10141132
15:00+16ese44340 0.0 10141423
18:00+16ese55365 0.0 10141771
21:00+10e22615 0.0 101612